When you browse on this site, cookies collect data to enhance your experience and personalize the content and advertising you see.
Visit our Privacy Policy to learn more. By continuing to use the site, you agree to this use of cookies and data.

Hourly Weather Berat

Today, 3 July, Friday

Time Temperature Precipitation Wind Pressure Humidity
00:00 +23°C° 0 mm 0 mps 740 mmHg 67%
01:00 +23°C° 0 mm 0 mps 741 mmHg 67%
02:00 +25°C° 0 mm 1 mps 740 mmHg 67%
03:00 +24°C° 0 mm 1 mps 740 mmHg 67%
04:00 +24°C° 0 mm 1 mps 740 mmHg 67%
05:00 +26°C° 0 mm 1 mps 740 mmHg 62%
06:00 +28°C° 0 mm 1 mps 740 mmHg 56%
07:00 +28°C° 0 mm 0 mps 741 mmHg 51%
08:00 +31°C° 0 mm 1 mps 741 mmHg 48%
09:00 +33°C° 0 mm 1 mps 741 mmHg 44%
10:00 +35°C° 0 mm 2 mps 741 mmHg 40%
11:00 +35°C° 0 mm 2 mps 741 mmHg 39%
12:00 +36°C° 0 mm 3 mps 741 mmHg 38%
13:00 +37°C° 0 mm 4 mps 741 mmHg 37%
14:00 +36°C° 0 mm 4 mps 740 mmHg 39%
15:00 +36°C° 0 mm 4 mps 740 mmHg 41%
16:00 +35°C° 0 mm 4 mps 740 mmHg 43%
17:00 +33°C° 0 mm 3 mps 740 mmHg 51%
18:00 +30°C° 0 mm 2 mps 740 mmHg 59%
19:00 +28°C° 0 mm 1 mps 740 mmHg 66%
20:00 +27°C° 0 mm 1 mps 741 mmHg 68%
21:00 +27°C° 0 mm 1 mps 741 mmHg 69%
22:00 +26°C° 0 mm 1 mps 741 mmHg 70%
23:00 +25°C° 0 mm 1 mps 741 mmHg 70%

Tomorrow, 4 July, Saturday

Time Temperature Precipitation Wind Pressure Humidity
00:00 +25°C° 0 mm 1 mps 741 mmHg 69%
01:00 +25°C° 0 mm 1 mps 741 mmHg 68%
02:00 +25°C° 0 mm 1 mps 741 mmHg 68%
03:00 +24°C° 0 mm 1 mps 741 mmHg 67%
04:00 +24°C° 0 mm 1 mps 741 mmHg 66%
05:00 +26°C° 0 mm 1 mps 741 mmHg 62%
06:00 +28°C° 0 mm 1 mps 741 mmHg 57%
07:00 +29°C° 0 mm 1 mps 742 mmHg 52%
08:00 +31°C° 0 mm 1 mps 742 mmHg 48%
09:00 +33°C° 0 mm 1 mps 742 mmHg 43%
10:00 +34°C° 0 mm 1 mps 742 mmHg 38%
11:00 +35°C° 0 mm 2 mps 742 mmHg 38%
12:00 +35°C° 0 mm 3 mps 741 mmHg 39%
13:00 +35°C° 0 mm 3 mps 741 mmHg 40%
14:00 +34°C° 0.4 mm 3 mps 741 mmHg 45%
15:00 +32°C° 0.4 mm 2 mps 741 mmHg 51%
16:00 +31°C° 0.4 mm 2 mps 740 mmHg 57%
17:00 +29°C° 0.5 mm 2 mps 740 mmHg 63%
18:00 +28°C° 0.5 mm 2 mps 740 mmHg 69%
19:00 +26°C° 0.5 mm 2 mps 740 mmHg 76%
20:00 +26°C° 0.3 mm 1 mps 741 mmHg 78%
21:00 +25°C° 0.3 mm 1 mps 741 mmHg 80%
22:00 +24°C° 0.3 mm 1 mps 741 mmHg 83%
23:00 +24°C° 0 mm 1 mps 741 mmHg 83%

Day after tomorrow, 5 July, Sunday

Time Temperature Precipitation Wind Pressure Humidity
00:00 +23°C° 0 mm 1 mps 741 mmHg 82%
01:00 +23°C° 0 mm 1 mps 740 mmHg 82%
02:00 +23°C° 0 mm 1 mps 740 mmHg 81%
03:00 +23°C° 0 mm 1 mps 740 mmHg 80%
04:00 +22°C° 0 mm 1 mps 740 mmHg 79%
05:00 +24°C° 0 mm 1 mps 740 mmHg 73%
06:00 +26°C° 0 mm 1 mps 740 mmHg 67%
07:00 +27°C° 0 mm 1 mps 740 mmHg 61%
08:00 +29°C° 0.1 mm 1 mps 740 mmHg 55%
09:00 +31°C° 0.1 mm 2 mps 740 mmHg 48%
10:00 +34°C° 0.1 mm 2 mps 740 mmHg 42%
11:00 +34°C° 0.2 mm 2 mps 740 mmHg 41%
12:00 +35°C° 0.2 mm 3 mps 740 mmHg 40%
13:00 +35°C° 0.2 mm 3 mps 739 mmHg 39%
14:00 +34°C° 0.3 mm 3 mps 739 mmHg 42%
15:00 +33°C° 0.3 mm 3 mps 739 mmHg 46%
16:00 +32°C° 0.3 mm 2 mps 739 mmHg 49%
17:00 +30°C° 0.3 mm 2 mps 739 mmHg 57%
18:00 +28°C° 0.3 mm 2 mps 739 mmHg 65%
19:00 +26°C° 0.3 mm 1 mps 739 mmHg 72%
20:00 +26°C° 0.3 mm 2 mps 740 mmHg 73%
21:00 +25°C° 0.3 mm 2 mps 740 mmHg 74%
22:00 +25°C° 0.3 mm 2 mps 740 mmHg 75%
23:00 +24°C° 0.1 mm 2 mps 740 mmHg 75%

6 July, Monday

Time Temperature Precipitation Wind Pressure Humidity
00:00 +24°C° 0.1 mm 2 mps 740 mmHg 75%
01:00 +24°C° 0.1 mm 1 mps 739 mmHg 75%
02:00 +24°C° 0 mm 2 mps 739 mmHg 74%
03:00 +24°C° 0 mm 2 mps 739 mmHg 73%
04:00 +24°C° 0 mm 2 mps 738 mmHg 72%
05:00 +25°C° 0 mm 2 mps 738 mmHg 70%
06:00 +26°C° 0 mm 2 mps 738 mmHg 67%
07:00 +27°C° 0 mm 2 mps 738 mmHg 64%
08:00 +29°C° 0 mm 2 mps 738 mmHg 57%
09:00 +30°C° 0 mm 2 mps 738 mmHg 49%
10:00 +32°C° 0 mm 2 mps 739 mmHg 42%
11:00 +32°C° 0 mm 2 mps 738 mmHg 41%
12:00 +34°C° 0 mm 2 mps 738 mmHg 40%
13:00 +34°C° 0 mm 3 mps 737 mmHg 39%
14:00 +32°C° 0.1 mm 2 mps 737 mmHg 42%
15:00 +32°C° 0.1 mm 2 mps 737 mmHg 46%
16:00 +31°C° 0.1 mm 2 mps 737 mmHg 50%
17:00 +29°C° 0.1 mm 2 mps 737 mmHg 57%
18:00 +28°C° 0.1 mm 2 mps 737 mmHg 64%
19:00 +26°C° 0.1 mm 1 mps 737 mmHg 71%
20:00 +26°C° 0 mm 1 mps 737 mmHg 72%
21:00 +25°C° 0 mm 1 mps 738 mmHg 73%
22:00 +25°C° 0 mm 1 mps 738 mmHg 74%
23:00 +24°C° 0.1 mm 1 mps 738 mmHg 73%

7 July, Tuesday

Time Temperature Precipitation Wind Pressure Humidity
00:00 +24°C° 0.1 mm 1 mps 738 mmHg 72%
01:00 +24°C° 0.1 mm 1 mps 737 mmHg 71%
02:00 +24°C° 0 mm 1 mps 737 mmHg 70%
03:00 +24°C° 0 mm 1 mps 737 mmHg 69%
04:00 +24°C° 0 mm 1 mps 737 mmHg 68%
05:00 +25°C° 0 mm 1 mps 737 mmHg 64%
06:00 +27°C° 0 mm 1 mps 738 mmHg 61%
07:00 +28°C° 0 mm 1 mps 738 mmHg 57%
08:00 +30°C° 0 mm 1 mps 738 mmHg 51%
09:00 +32°C° 0 mm 1 mps 738 mmHg 45%
10:00 +33°C° 0 mm 1 mps 739 mmHg 40%
11:00 +35°C° 0 mm 2 mps 739 mmHg 38%
12:00 +36°C° 0 mm 2 mps 739 mmHg 37%
13:00 +37°C° 0 mm 2 mps 739 mmHg 35%
14:00 +36°C° 0 mm 2 mps 739 mmHg 39%
15:00 +35°C° 0 mm 3 mps 739 mmHg 42%
16:00 +34°C° 0 mm 3 mps 739 mmHg 46%
17:00 +33°C° 0.1 mm 3 mps 739 mmHg 53%
18:00 +30°C° 0.1 mm 2 mps 739 mmHg 60%
19:00 +28°C° 0.1 mm 2 mps 739 mmHg 67%
20:00 +28°C° 0.1 mm 2 mps 740 mmHg 69%
21:00 +27°C° 0.1 mm 1 mps 740 mmHg 72%
22:00 +26°C° 0.1 mm 1 mps 741 mmHg 75%
23:00 +25°C° 0 mm 1 mps 741 mmHg 75%

8 July, Wednesday

Time Temperature Precipitation Wind Pressure Humidity
00:00 +25°C° 0 mm 1 mps 741 mmHg 76%
01:00 +25°C° 0 mm 1 mps 741 mmHg 76%
02:00 +24°C° 0 mm 1 mps 741 mmHg 77%
03:00 +24°C° 0 mm 1 mps 741 mmHg 78%
04:00 +24°C° 0 mm 1 mps 741 mmHg 79%
05:00 +25°C° 0 mm 1 mps 742 mmHg 74%
06:00 +27°C° 0 mm 1 mps 742 mmHg 69%
07:00 +28°C° 0 mm 1 mps 742 mmHg 64%
08:00 +30°C° 0 mm 1 mps 743 mmHg 59%
09:00 +31°C° 0 mm 2 mps 743 mmHg 54%
10:00 +34°C° 0 mm 2 mps 743 mmHg 49%
11:00 +34°C° 0.1 mm 3 mps 743 mmHg 48%
12:00 +35°C° 0.1 mm 3 mps 743 mmHg 46%
13:00 +35°C° 0.1 mm 3 mps 743 mmHg 45%
14:00 +34°C° 0.1 mm 3 mps 742 mmHg 48%
15:00 +34°C° 0.1 mm 3 mps 742 mmHg 51%
16:00 +33°C° 0.1 mm 4 mps 742 mmHg 54%
17:00 +30°C° 0 mm 3 mps 742 mmHg 61%
18:00 +28°C° 0 mm 2 mps 743 mmHg 69%
19:00 +27°C° 0 mm 1 mps 743 mmHg 76%
20:00 +26°C° 0 mm 1 mps 743 mmHg 78%
21:00 +25°C° 0 mm 1 mps 743 mmHg 80%
22:00 +25°C° 0 mm 1 mps 744 mmHg 83%
23:00 +24°C° 0 mm 1 mps 744 mmHg 82%
Show more